Das Wetter in  D-61279 Heinzenberg / Taunus





Wetter Minimum- & Maximum-Werte im Dezember 2010

Standort: Heinzenberg / Taunus - Höhe 297 m         8 24' 1" Ost 50 21' 51" Nord
(   3-stündige Aktualisierung    letzte Aktualisierung um 19:04 am 31.12.2010  )


Messgrösse

Minimum

Maximum

Durchschnitt

Temperatur West /
Luftfeuchte West
Anklicken für Monats-Diagramm

-13,8 C

04:07
03.12.2010

67 %

07:39
05.12.2010

3,7 C

16:20
11.12.2010

99 %

16:02
08.12.2010

Temp

-3,1 C

Feuchte

92 %

Temperatur Ost /
Luftfeuchte Ost
Anklicken für Monats-Diagramm

-13,7 C

04:52
03.12.2010

--

--
--

3,3 C

16:50
11.12.2010

--

--
--

-3,4 C

--

Luftdruck Anklicken für Monats-Diagramm

989,8 hPa

01:12
20.12.2010

1031,6 hPa

11:34
10.12.2010

1013,8 hPa

Taupunkt

-15,2 C

04:07
03.12.2010

3,5 C

15:55
11.12.2010

-4,3 C

Windchill
( gefühlte Temperatur )

-22,9 C

14:20
01.12.2010

3,1 C

13:31
12.12.2010

-5,7 C

Windgeschwindigkeit /
Windrichtung
Anklicken für Monats-Diagramm

---

54,9 km/h / W-NW

01:42
20.12.2010

6,3 km/h
NO

Helligkeit /
Sonnenschein
Anklicken für Monats-Diagramm
Anklicken für Monats-Diagramm

Sonnenschein:

23:10 Stunden

Max: 4:40 Std am
03.12.2010

43,8 klux

12:26
12.12.2010

7,3 klux

Solarstrahlung Anklicken für Monats-Diagramm

---

300 W/m

12:26
12.12.2010

58 W/m

Regenmenge
    Dezember 2010
Anklicken für Monats-Diagramm

Insgesamt 50,0 l/m

in 122:41 Stunden
an 26 Tagen

9,4 l/m

11:17
08.12.2010

Gesamtmenge

50,0 l/m

Regen-Tage
    Dezember 2010
Anklicken für Monats-Diagramm

>   0 mm/Tag

>   2 mm/Tag

>   5 mm/Tag

> 10 mm/Tag

> 20 mm/Tag

26 Tage     
8 Tage     
3 Tage     
0 Tage     
0 Tage     

Eisige Tage Dezember 2010 / 2009

Tmin ≤ -10C     

5 Tage

/

3 Tage

Eistage Dezember 2010 / 2009

Tmax <     0C     

18 Tage

/

8 Tage

Frosttage Dezember 2010 / 2009

Tmin ≤     0C     

30 Tage

/

16 Tage

Kalte Tage Dezember 2010 / 2009

Tmax <   10C     

31 Tage

/

31 Tage

Warme Tage Dezember 2010 / 2009

Tmax ≥   20C     

0 Tage

/

0 Tage

Sommertage Dezember 2010 / 2009

Tmax ≥   25C     

0 Tage

/

0 Tage

Heisse Tage Dezember 2010 / 2009

Tmax ≥   30C     

0 Tage

/

0 Tage


Monatsdiagramm Dezember 2010

Die Kurven zeigen den Durchschnittswert des jeweiligen Tages an


Wetter-Monatsübersicht Dezember 2010
Datum
  Temperatur
   Luftdruck
   Wind
  Regen
   Luftfeuchte
   Helligkeit

Sonnen-
schein


Temp.

Min.
Temp.

Max.
Temp.


Luftdruck

Min.
Luftdruck

Max.
Luftdruck

-Geschw.
Haupt-Richtg.

Max.
Wind

Menge /
Dauer


Feuchte

Min.
Feuchte

Max.
Feuchte


Helligkeit

Max.
Helligkeit

1.
Dezember
-7,7 C-8,8 C
23:06
-4,6 C
00:00
1006,0 hPa1003,7 hPa
13:45
1010,5 hPa
01:05
11,2 km/h
NO
25,4 km/h
14:20  
---
83 %80 %
19:55
89 %
00:00
4,25 klux9,73 klux
10:15
--- 
2.
Dezember
-8,8 C-12,6 C
23:27
-5,4 C
14:56
1009,6 hPa1006,9 hPa
00:06
1012,7 hPa
23:27
0,8 km/h
NO
11,0 km/h
11:36  
---
40 Minuten
85 %79 %
14:26
90 %
21:11
11,3 klux41,0 klux
11:11
1:45 Std 
3.
Dezember
-9,8 C-13,8 C
04:07
-5,3 C
14:02
1013,5 hPa1011,5 hPa
01:22
1017,3 hPa
22:07
0,3 km/h
SO
6,4 km/h
02:22  
---
90 %84 %
13:17
92 %
05:27
15,4 klux36,6 klux
12:17
4:40 Std 
4.
Dezember
-5,5 C-11,1 C
04:53
-1,6 C
23:39
1019,0 hPa1015,3 hPa
23:39
1021,9 hPa
10:38
9,7 km/h
W-SW
34,2 km/h
13:18  
0,5 l/m
2:16 Stunden
89 %83 %
14:43
94 %
06:18
7,3 klux34,7 klux
11:13
20 Min 
5.
Dezember
-0,4 C-1,8 C
00:04
0,7 C
15:29
1007,6 hPa1003,6 hPa
18:39
1015,3 hPa
00:04
14,7 km/h
W-SW
36,8 km/h
03:24  
---
1:50 Stunden
76 %67 %
07:39
91 %
23:10
5,6 klux11,3 klux
11:19
--- 
6.
Dezember
-0,6 C-1,6 C
20:25
1,1 C
12:55
1002,3 hPa1000,5 hPa
14:55
1004,7 hPa
00:00
1,1 km/h
NO
12,8 km/h
15:20  
---
1:00 Stunden
90 %84 %
12:50
94 %
02:30
8,2 klux19,1 klux
12:40
15 Min 
7.
Dezember
-0,8 C-1,6 C
01:06
0,9 C
14:26
1003,3 hPa1000,7 hPa
01:46
1004,8 hPa
22:32
0,5 km/h
NO
7,4 km/h
11:41  
2,9 l/m
5:31 Stunden
91 %85 %
13:46
97 %
20:31
6,0 klux15,0 klux
13:16
--- 
8.
Dezember
-1,0 C-2,3 C
23:53
0,0 C
16:02
1004,9 hPa1003,6 hPa
16:02
1012,2 hPa
23:53
0,0 km/h
N
0,0 km/h
00:02  
9,4 l/m
15:16 Stunden
98 %97 %
00:02
99 %
16:02
2,8 klux8,6 klux
14:17
--- 
9.
Dezember
-1,0 C-3,5 C
01:53
0,5 C
22:49
1020,9 hPa1012,3 hPa
00:03
1025,5 hPa
20:03
12,0 km/h
W
34,3 km/h
22:03  
1,1 l/m
8:56 Stunden
97 %95 %
01:33
99 %
06:58
7,58 klux32,80 klux
12:38
25 Min 
10.
Dezember
0,4 C-1,4 C
07:54
1,4 C
22:25
1028,1 hPa1024,3 hPa
01:19
1031,6 hPa
11:34
9,2 km/h
W-SW
36,7 km/h
00:29  
1,1 l/m
8:06 Stunden
98 %95 %
12:39
99 %
00:04
8,9 klux25,3 klux
12:59
10 Min 
11.
Dezember
2,7 C1,2 C
00:00
3,7 C
16:20
1019,7 hPa1015,7 hPa
22:46
1025,3 hPa
00:00
25,4 km/h
W
38,3 km/h
02:15  
1,5 l/m
17:20 Stunden
98 %95 %
20:20
99 %
00:00
3,5 klux15,1 klux
12:05
--- 
12.
Dezember
2,0 C-1,3 C
23:57
3,4 C
12:31
1015,7 hPa1013,6 hPa
03:56
1020,4 hPa
23:57
16,5 km/h
W-NW
37,4 km/h
04:06  
0,6 l/m
5:54 Stunden
89 %73 %
23:57
99 %
00:06
5,6 klux43,8 klux
12:26
30 Min 
13.
Dezember
-4,8 C-7,7 C
08:47
-1,4 C
00:02
1024,4 hPa1020,4 hPa
00:02
1027,5 hPa
09:27
5,5 km/h
W-SW
27,5 km/h
00:42  
0,3 l/m
1:55 Stunden
78 %68 %
01:32
90 %
23:32
14,1 klux34,1 klux
10:47
4:15 Std 
14.
Dezember
-5,9 C-8,9 C
06:37
-3,1 C
14:27
1027,5 hPa1023,0 hPa
00:02
1031,4 hPa
23:24
1,8 km/h
W-NW
12,5 km/h
23:54  
0,3 l/m
3:40 Stunden
91 %89 %
18:22
93 %
03:17
7,8 klux28,3 klux
14:07
45 Min 
15.
Dezember
-4,4 C-6,1 C
06:54
-2,2 C
14:34
1027,1 hPa1024,0 hPa
23:19
1031,4 hPa
00:04
8,7 km/h
W-NW
19,8 km/h
06:19  
---
87 %77 %
18:14
93 %
09:39
5,6 klux10,8 klux
13:34
--- 
16.
Dezember
-5,1 C-8,2 C
04:59
-3,0 C
23:20
1011,0 hPa994,7 hPa
23:20
1024,0 hPa
00:09
14,7 km/h
W-SW
45,3 km/h
19:14  
1,4 l/m
6:51 Stunden
90 %77 %
11:24
97 %
21:24
8,0 klux23,7 klux
10:24
2:00 Std 
17.
Dezember
-4,6 C-9,1 C
23:41
-2,7 C
02:45
996,3 hPa992,6 hPa
01:45
1000,7 hPa
23:56
4,5 km/h
W-SW
21,6 km/h
00:10  
0,3 l/m
10 Minuten
93 %87 %
14:05
97 %
00:55
9,2 klux39,7 klux
11:55
1:15 Std 
18.
Dezember
-6,3 C-9,7 C
00:51
-2,3 C
15:41
1000,6 hPa998,1 hPa
07:56
1003,9 hPa
20:36
6,8 km/h
W-SW
26,1 km/h
12:11  
0,2 l/m
40 Minuten
90 %79 %
15:46
96 %
05:36
10,6 klux43,4 klux
13:16
2:00 Std 
19.
Dezember
-1,5 C-4,6 C
00:21
2,2 C
23:42
996,0 hPa989,9 hPa
23:42
1000,1 hPa
00:21
14,6 km/h
W-SW
36,1 km/h
23:42  
4,1 l/m
10:36 Stunden
93 %84 %
12:21
98 %
18:26
5,7 klux14,3 klux
10:06
10 Min 
20.
Dezember
-2,5 C-6,2 C
23:43
2,7 C
01:22
1003,8 hPa989,8 hPa
01:12
1009,7 hPa
23:43
9,6 km/h
W-NW
54,9 km/h
01:42  
0,2 l/m
1:10 Stunden
91 %86 %
12:17
95 %
00:02
4,6 klux11,6 klux
12:47
--- 
21.
Dezember
-3,7 C-6,8 C
02:13
-1,3 C
14:28
1006,5 hPa1005,3 hPa
08:28
1008,7 hPa
01:28
0,0 km/h
SO
4,3 km/h
17:43  
4,3 l/m
6:45 Stunden
96 %94 %
14:28
99 %
22:59
5,0 klux11,3 klux
12:03
--- 
22.
Dezember
0,2 C-1,4 C
00:04
1,2 C
14:29
1003,8 hPa1001,5 hPa
22:35
1005,9 hPa
00:04
0,0 km/h
NW
3,4 km/h
21:59  
7,6 l/m
10:15 Stunden
99 %99 %
00:04
99 %
00:04
5,4 klux14,4 klux
13:54
--- 
23.
Dezember
0,7 C-0,6 C
22:55
1,8 C
14:10
999,8 hPa998,2 hPa
14:50
1002,6 hPa
00:10
2,5 km/h
NO
18,5 km/h
22:25  
4,3 l/m
5:50 Stunden
99 %99 %
00:00
99 %
00:00
4,0 klux11,7 klux
12:15
--- 
24.
Dezember
-1,9 C-4,4 C
23:56
-0,6 C
00:00
1004,7 hPa1000,6 hPa
00:00
1012,5 hPa
23:56
9,9 km/h
NO
21,9 km/h
04:10  
5,8 l/m
4:46 Stunden
97 %95 %
23:11
99 %
00:00
3,7 klux8,3 klux
12:15
--- 
25.
Dezember
-6,5 C-12,9 C
23:42
-4,2 C
12:11
1021,3 hPa1012,5 hPa
00:01
1029,3 hPa
23:42
5,9 km/h
NO
17,2 km/h
12:26  
1,8 l/m
59 Minuten
89 %77 %
12:26
96 %
00:01
12,37 klux41,80 klux
12:01
2:10 Std 
26.
Dezember
-6,5 C-12,8 C
00:02
-2,4 C
23:18
1027,3 hPa1025,7 hPa
23:18
1029,3 hPa
00:02
1,4 km/h
NO
18,5 km/h
23:38  
0,2 l/m
5 Minuten
95 %91 %
00:02
97 %
20:52
5,0 klux11,7 klux
11:37
--- 
27.
Dezember
-2,1 C-4,2 C
23:40
0,0 C
14:43
1024,3 hPa1022,8 hPa
22:30
1025,8 hPa
00:08
3,9 km/h
NO
20,1 km/h
01:03  
2,3 l/m
1:20 Stunden
95 %90 %
14:03
97 %
00:03
6,7 klux17,7 klux
14:33
10 Min 
28.
Dezember
-3,8 C-5,4 C
03:10
-1,4 C
15:10
1022,8 hPa1021,5 hPa
13:20
1025,0 hPa
22:00
0,3 km/h
O-NO
8,1 km/h
15:35  
0,2 l/m
5 Minuten
95 %89 %
15:30
98 %
03:45
8,8 klux32,6 klux
12:05
35 Min 
29.
Dezember
-2,3 C-4,1 C
00:00
-0,3 C
14:20
1025,2 hPa1024,4 hPa
14:20
1027,0 hPa
23:56
0,9 km/h
O-SO
14,0 km/h
23:26  
---
90 %84 %
14:55
97 %
00:00
11,6 klux35,9 klux
11:35
1:45 Std 
30.
Dezember
-2,6 C-4,1 C
23:32
-1,1 C
12:56
1026,7 hPa1025,6 hPa
14:21
1027,8 hPa
10:26
1,6 km/h
O-SO
12,4 km/h
01:06  
---
95 %89 %
00:01
97 %
20:51
5,6 klux11,1 klux
12:16
--- 
31.
Dezember
-3,4 C-5,3 C
06:57
-1,8 C
15:12
1026,7 hPa1025,7 hPa
23:42
1028,1 hPa
10:07
0,9 km/h
NW
7,9 km/h
10:07  
---
45 Minuten
97 %93 %
14:41
99 %
07:07
7,4 klux17,0 klux
10:57
--- 



Dezember
2010

Temperatur

  

Luftdruck

  

Wind

  

Regen

  

Luftfeuchte

  

Helligkeit

Sonnen-
schein

Min

Max

Min

Max

Max

Max

Min

Max

Max

Max

-3,1 C

-13,8 C

04:07 Uhr
03.12.2010

3,7 C

16:20 Uhr
11.12.2010

1013,8 hPa

989,8 hPa

01:12 Uhr
20.12.2010

1031,6 hPa

11:34 Uhr
10.12.2010

6,3 km/h

NO

54,9 km/h

01:42 Uhr
20.12.2010

9,4 l/m

15:16 Stunden
08.12.2010

92 %

67 %

07:39 Uhr
05.12.2010

99 %

16:02 Uhr
08.12.2010

7,3 klux

43,80 klux

12:26 Uhr
12.12.2010

4:40 Std

am
03.12.2010

Gesamt

Gesamt

50,0 l/m

26 Tage
122:41 h

23:10 Std


Wetter-Diagramme Dezember 2010     Heinzenberg / Taunus   
TemperaturLuftfeuchte
SolarstrahlungLuftdruck
HelligkeitSonnenschein
RegenmengeRegendauer
Wind-GeschwindigkeitWind-Richtung